Showing default

LEMUR 2 KREMPEL-BRO1, 63357

Orbit data source: Space-Track

LEMUR 2 KREMPEL-BRO1, 63357 is a payload satellite owned by OroraTech (US) in SSO that was launched on Wed, 26 Mar 2025 UTC via an ELECTRON launch vehicle from the Rocket Lab Launch Complex (RLLC). Payload-class satellites include a variety of spacecraft equipped with specific instruments for various scientific and technological missions. These include communications satellites like Starlink; space stations such as the ISS; scientific satellites like the Hubble; Earth observation satellites from companies like Planet Labs, Umbra, and HawkEye 360; GPS; miniature CubeSats for education and research; and military/defense satellites.

Loading next visibility...
Identifier
63357, 2025-061G
Orbit
SSO
Country
Flag of USUS
Related business
Manufacturer
Spire/Glasgow
Mission
Operational Commercial Imaging
Bus & Motor
CUBESAT 6U, Unknown motor
Mass
~15 kg wet, ~15 kg dry
Launch date (UTC)
2025-03-26 (7 months ago)
Launch vehicle
ELECTRON
Launch site
Rocket Lab Launch Complex (RLLC)
Object type
Payload
Rocket body
Debris
Shape & HBR
Box + 2 Pan, 0.3 m
Radar Cross Section
0.065 m², Medium (>0.1 m² and < 1m²)

Expand to show TLE details & history
Last TLE update: 8 hours ago

TLE from 8 hours ago
0 LEMUR 2 KREMPEL-BRO1
1 63357U 25061G   25297.75166035  .00007629  00000-0  44536-3 0  9995
2 63357  97.5354 270.8582 0019190 346.6756  13.3965 15.12057808 32029
Epoch: 2025-10-24T18:02Z
TLE epoch observation values (Epoch: 2025-10-24T18:02:23.454Z)
Latitude
-0.00002°
Longitude
-33.13158°
Altitude
520.104 km
Speed
7.61 km/s
True Right ascension
18h 03m 25s
True Declination
0° 00' 00"
Sunlit
Object was in daylight at epoch
Visualization orbit readout
Latitude
Unknown
Longitude
Unknown
Altitude
Unknown
Speed
Unknown
Apparent Right ascension
Unknown
Apparent Declination
Unknown
Sunlit
N/A
Visualization observer readout
Local Sidereal Time
21:13:37
Azimuth
Unknown
Elevation
Unknown
Doppler factor
Unknown
Orbital elements
Apogee altitude
540.158 km
Perigee altitude
513.656 km
Semi-major axis
6,905.044 km
Eccentricity
0.00192
Inclination
97.5354°
RAAN
270.8582°
Arg. of periapsis
346.6756°
True anomaly
13.44757°
Mean anomaly
13.3965°
Eccentric anomaly
13.42202°
Mean motion
3.78263 °/min
Orbital period
95.17 mins
BSTAR
0.00044536
Loading maneuver chart data...
Computing Atmospheric mass density...
Loading historical data...
Loading historical data...
Loading historical data...
Loading historical data...
Loading historical data...
Loading historical data...
Loading historical data...

Documentation

Showing up to 5 results
|